Regional Weather Roundup
Issued by NWS

Home | Current Version | Previous Version | Text Only | Print | Product List | Glossary Off
Versions: 1 2 3 4 5 6 7 8 9 10 11 12 13 14 15 16 17 18 19 20 21 22 23 24 25 26 27 28 29 30 31 32 33 34 35 36 37 38 39 40 41 42 43 44 45 46 47 48 49 50

000
ASUS43 KLOT 242010
RWRIL

ILLINOIS REGIONAL WEATHER ROUNDUP
NATIONAL WEATHER SERVICE CHICAGO/ROMEOVILLE IL
300 PM CDT THU JUL 24 2014

NOTE: "FAIR" INDICATES FEW OR NO CLOUDS BELOW 12,000 FEET WITH NO
SIGNIFICANT WEATHER AND/OR OBSTRUCTIONS TO VISIBILITY.

* THESE STATIONS ARE NOT UNDER NWS QUALITY CONTROL. THEY ALSO MAY NOT
  REPORT WEATHER SUCH AS PRECIPITATION OR FOG.

ILZ001-002-007-009-015-016-024-242100-
NORTHWEST ILLINOIS

CITY           SKY/WX    TMP DP  RH WIND       PRES   REMARKS
MOLINE         MOSUNNY   77  56  48 SE8       30.10F
STERLING*      PTSUNNY   73  54  49 NE5       30.12F
SAVANNA*       CLOUDY    76  52  42 SE5       30.10F
$$

ILZ003-004-008-010-011-017-018-242100-
NORTH CENTRAL ILLINOIS

CITY           SKY/WX    TMP DP  RH WIND       PRES   REMARKS
ROCKFORD       PTSUNNY   76  51  41 VRB3      30.13F
FREEPORT*      PTSUNNY   72  53  51 CALM      30.14F
ROCHELLE*      SUNNY     76  51  41 E10       30.13F
DE KALB*       MOSUNNY   73  52  46 CALM      30.12F
PERU*          PTSUNNY   76  53  45 NE5       30.12F
$$

ILZ005-006-012>014-019>023-242100-
NORTHEAST ILLINOIS

CITY           SKY/WX    TMP DP  RH WIND       PRES   REMARKS
CHICAGO-OHARE  MOSUNNY   75  44  33 NE12      30.12F
CHICAGO-MIDWAY MOSUNNY   74  49  41 NE10      30.12F
AURORA         SUNNY     76  48  37 NE7       30.12F
LANSING*       SUNNY     71  51  50 NE6       30.13F
JOLIET*        SUNNY     74  45  35 CALM      30.12F
WAUKEGAN       SUNNY     69  45  41 E7        30.13F
DUPAGE AIRPORT SUNNY     75  47  36 NE6       30.12F
KANKAKEE*      SUNNY     74  54  49 N6        30.12F
WHEELING       SUNNY     73  45  36 E8        30.14F
MORRIS*        SUNNY     77  50  39 N3        30.11F
ROMEOVILLE*    SUNNY     74  46  35 E8        30.12F
$$

LMZ740>746-242100-
SOUTHERN LAKE MICHIGAN

STATION/POSITION SKY/WX   TEMP    WIND        PRES    VSBY  WAVE
                          AIR SEA DIR/SP/G                  HT/PER
                          (F)     (DEG/KT/KT) (MB)    (MI)  (FT/S)
SOUTHERN BUOY              60 61  320/  4/  6 1020.8F
WAUKEGAN HARBOR            63      80/  5/  6   N/A
HARRISON CRIB              63      20/  8/ 10   N/A
CALUMET HARBOR             66     350/  9/ 12 1019.3F
MICHIGAN CITY              65     350/ 14/ 15   N/A
MICHIGAN CITY 6N           65 69   10/ 12/ 14   N/A           3/ 2
ST. JOSEPH                 58 51  330/  6/  8   N/A           2/ 2
$$

ILZ025>027-034>036-040-047-049-050-058-095>099-242100-
WEST-CENTRAL ILLINOIS

CITY           SKY/WX    TMP DP  RH WIND       PRES   REMARKS
QUINCY         MOSUNNY   77  55  46 SE8       30.11F
GALESBURG*     MOSUNNY   80  57  44 SE6       30.11F HX  81
MACOMB*        SUNNY     76  57  52 NE6       30.14F
JACKSONVILLE*  MOSUNNY   78  55  44 E7        30.13F
PITTSFIELD*    MOSUNNY   78  54  43 NE6       30.13F
$$

ILZ028>032-037-038-041>044-048-051>054-059>061-242100-
CENTRAL ILLINOIS

CITY           SKY/WX    TMP DP  RH WIND       PRES   REMARKS
PONTIAC        SUNNY     75  54  46 NE7       30.11F
DECATUR        SUNNY     77  56  48 NE7       30.11F
PEORIA         SUNNY     80  53  39 E10       30.11F HX  80
LACON*         MOSUNNY   77  53  44 NE6       30.11F
LINCOLN*       SUNNY     78  53  41 N5G16     30.09F
SPRINGFIELD    SUNNY     79  53  40 N9        30.11F
TAYLORVILLE    MOSUNNY   73  54  49 N9        30.11F
$$

ILZ033-039-045-046-055>057-062-063-242100-
EAST-CENTRAL ILLINOIS

CITY           SKY/WX    TMP DP  RH WIND       PRES   REMARKS
CHAMPAIGN      MOSUNNY   77  57  50 N7        30.11F
DANVILLE*      MOSUNNY   74  59  58 N8        30.08F
RANTOUL*       MOSUNNY   77  51  40 NE8       30.12F
MATTOON        MOSUNNY   77  56  48 N12       30.10F
PARIS*         MOSUNNY   77  59  54 NE3       30.10F
$$

ILZ079-100>102-242100-
SOUTHWEST ILLINOIS

CITY           SKY/WX    TMP DP  RH WIND       PRES   REMARKS
ALTON          MOSUNNY   77  54  44 NE6       30.11F
BELLEVILLE     MOSUNNY   80  58  45 N12       30.08F HX  81
CAHOKIA*       MOSUNNY   81  55  40 NE7       30.09F HX  81
SPARTA*        MOSUNNY   75  55  50 NE10      30.09F
$$

ILZ064>066-069>071-074>076-080>082-084>086-088>090-092>094-242100-
SOUTH-CENTRAL ILLINOIS

CITY           SKY/WX    TMP DP  RH WIND       PRES   REMARKS
CARBONDALE     MOSUNNY   80  60  50 N9        30.07F HX  81
CAIRO*         MOSUNNY   79  63  58 NE7       30.06S HX  81
EFFINGHAM*     MOSUNNY   77  51  39 N7        30.10S
MARION         MOSUNNY   79  59  50 N12       30.09S HX  80
MT. VERNON     PTSUNNY   75  57  53 N6        30.10S
CENTRALIA*     PTSUNNY   82  55  39 NE7       30.09F HX  81
SALEM*         PTSUNNY   80  60  51 N8        30.10S HX  80
METROPOLIS*    PTSUNNY   77  57  50 NE3       30.05F
$$

ILZ067-068-072-073-078-083-087-091-242100-
SOUTHEAST ILLINOIS

CITY           SKY/WX    TMP DP  RH WIND       PRES   REMARKS
LAWRENCEVILLE  MOSUNNY   77  58  51 NE8       30.07F
FLORA*         SUNNY     76  54  46 N9        30.09F
FAIRFIELD*     MOSUNNY   79  63  57 N8        30.08S HX  80
HARRISBURG*    MOSUNNY   77  58  52 NE7       30.09R
ROBINSON*      MOSUNNY   81  60  49 NE8       30.09S HX  81
CARMI*         MOSUNNY   79  61  53 N6        30.06F HX  80
$$

ABBREVIATIONS USED IN REMARKS
   TC - TEMPERATURE IN CELSIUS
  WCI - WIND CHILL INDEX
   HX - HEAT INDEX
  VSB - VISIBILITY
$$



USA.gov is the U.S. government's official web portal to all federal, state and local government web resources and services.